CW9561 Weather Reports


time (UTC)temp
F
wind
direction
speed
knots
gust
knots
rain 1hr
in
rain 24hr
in
rain mn
in
humidity
%
barometer
mb
20260510021034 52 260 0.9 0.0 0.00 0.00 0.00 33 1020.4
20260510020030 52 355 0.9 0.0 0.00 0.00 0.00 31 1020.1
20260510015022 52 355 0.0 0.0 0.00 0.00 0.00 30 1020.0
20260510014019 53 276 0.0 0.0 0.00 0.00 0.00 29 1019.7
20260510011033 54 276 0.0 0.0 0.00 0.00 0.00 28 1019.7
20260510010028 55 276 0.0 0.0 0.00 0.00 0.00 26 1019.5
20260510005024 56 276 0.0 0.0 0.00 0.00 0.00 25 1019.7
20260510003032 57 26 0.0 0.0 0.00 0.00 0.00 24 1019.6
20260510002034 57 217 0.9 0.0 0.00 0.00 0.00 23 1019.6
20260510001030 57 317 1.7 0.0 0.00 0.00 0.00 22 1019.7
20260510000023 58 287 2.6 0.0 0.00 0.00 0.00 21 1019.6
20260509235038 59 236 1.7 0.0 0.00 0.00 0.00 20 1019.6
20260509234035 59 319 2.6 0.0 0.00 0.00 0.00 20 1019.7
20260509233031 59 283 3.5 0.0 0.00 0.00 0.00 20 1019.6
20260509232028 60 280 1.7 0.0 0.00 0.00 0.00 20 1019.7
20260509231039 60 280 2.6 0.0 0.00 0.00 0.00 22 1019.8
20260509230033 60 232 2.6 0.0 0.00 0.00 0.00 22 1019.8
20260509225031 60 332 2.6 0.0 0.00 0.00 0.00 21 1019.9
20260509224023 59 288 1.7 0.0 0.00 0.00 0.00 25 1019.7
20260509223039 60 267 2.6 0.0 0.00 0.00 0.00 25 1019.5
20260509221028 61 281 1.7 0.0 0.00 0.00 0.00 25 1019.5
20260509220024 61 252 1.7 0.0 0.00 0.00 0.00 23 1019.5
20260509215039 62 292 2.6 0.0 0.00 0.00 0.00 23 1019.5
20260509214032 63 281 0.9 0.0 0.00 0.00 0.00 24 1019.4
20260509213027 62 263 2.6 0.0 0.00 0.00 0.00 27 1019.7
20260509212021 62 328 3.5 0.0 0.00 0.00 0.00 23 1019.4
20260509210040 62 215 1.7 0.0 0.00 0.00 0.00 26 1019.5
20260509205030 62 306 2.6 0.0 0.00 0.00 0.00 24 1019.7
20260509204028 61 271 2.6 0.0 0.00 0.00 0.00 25 1019.7
20260509203026 62 303 1.7 0.0 0.00 0.00 0.00 25 1019.5
20260509202027 61 262 2.6 0.0 0.00 0.00 0.00 24 1019.6
20260509201038 61 303 2.6 0.0 0.00 0.00 0.00 24 1020.0
20260509200032 61 284 2.6 0.0 0.00 0.00 0.00 24 1020.1
20260509194022 61 300 2.6 0.0 0.00 0.00 0.00 25 1019.7
20260509193023 60 279 2.6 0.0 0.00 0.00 0.00 25 1019.6
20260509192036 60 276 1.7 0.0 0.00 0.00 0.00 27 1020.0
20260509191029 61 283 1.7 0.0 0.00 0.00 0.00 27 1019.9
20260509190023 61 306 1.7 0.0 0.00 0.00 0.00 28 1019.8
20260509185035 60 288 0.9 0.0 0.00 0.00 0.00 27 1019.7
20260509184033 60 294 2.6 0.0 0.00 0.00 0.00 26 1019.9
20260509183027 59 53 1.7 0.0 0.00 0.00 0.00 28 1019.6
20260509181036 59 294 1.7 0.0 0.00 0.00 0.00 31 1019.7
20260509180029 59 294 2.6 0.0 0.00 0.00 0.00 34 1019.9
20260509175026 59 302 1.7 0.0 0.00 0.00 0.00 31 1020.0
20260509174022 58 126 2.6 0.0 0.00 0.00 0.00 32 1020.1
20260509172028 57 273 2.6 0.0 0.00 0.00 0.00 35 1020.0
20260509171020 57 131 2.6 0.0 0.00 0.00 0.00 34 1020.2
20260509170021 58 221 1.7 0.0 0.00 0.00 0.00 35 1020.1
20260509165034 58 190 1.7 0.0 0.00 0.00 0.00 33 1020.0
20260509164030 58 279 1.7 0.0 0.00 0.00 0.00 34 1019.9
20260509163023 59 336 0.9 0.0 0.00 0.00 0.00 33 1020.2
20260509162017 58 221 1.7 0.0 0.00 0.00 0.00 37 1019.9
20260509161038 57 325 0.9 0.0 0.00 0.00 0.00 33 1019.8
20260509160034 57 345 0.9 0.0 0.00 0.00 0.00 35 1020.1
20260509155028 56 92 0.9 0.0 0.00 0.00 0.00 36 1019.4
20260509154022 56 302 0.9 0.0 0.00 0.00 0.00 38 1019.4
20260509153022 55 190 0.9 0.0 0.00 0.00 0.00 37 1019.5
20260509152036 56 226 0.9 0.0 0.00 0.00 0.00 34 1019.6
20260509151029 55 13 1.7 0.0 0.00 0.00 0.00 36 1019.7
20260509150023 54 252 1.7 0.0 0.00 0.00 0.00 36 1019.6
20260509145040 54 313 0.9 0.0 0.00 0.00 0.00 39 1019.6
20260509144036 54 240 0.9 0.0 0.00 0.00 0.00 36 1019.6
20260509143027 53 174 0.9 0.0 0.00 0.00 0.00 38 1019.5
20260509142037 53 5 0.9 0.0 0.00 0.00 0.00 39 1019.5
20260509141028 52 288 1.7 0.0 0.00 0.00 0.00 41 1019.6
20260509135033 51 96 2.6 0.0 0.00 0.00 0.00 43 1019.9
20260509134029 50 112 0.9 0.0 0.00 0.00 0.00 43 1019.8
20260509133040 49 14 0.0 0.0 0.00 0.00 0.00 46 1019.7
20260509131025 48 58 0.0 0.0 0.00 0.00 0.00 49 1019.8
20260509130037 45 249 0.0 0.0 0.00 0.00 0.00 52 1019.9
20260509125037 43 265 0.0 0.0 0.00 0.00 0.00 58 1019.9
20260509124033 41 265 0.0 0.0 0.00 0.00 0.00 59 1019.2
20260509123028 40 265 0.0 0.0 0.00 0.00 0.00 58 1019.9
20260509122023 40 154 0.0 0.0 0.00 0.00 0.00 57 1019.9
20260509121027 41 247 0.0 0.0 0.00 0.00 0.00 58 1019.8
20260509120022 41 247 0.0 0.0 0.00 0.00 0.00 57 1019.5
20260509115035 42 247 0.0 0.0 0.00 0.00 0.00 55 1019.4
20260509111018 45 247 0.0 0.0 0.00 0.00 0.00 52 1019.3
20260509110037 45 247 0.0 0.0 0.00 0.00 0.00 52 1019.4
20260509105030 45 247 0.9 0.0 0.00 0.00 0.00 52 1019.2
20260509104025 45 263 0.9 0.0 0.00 0.00 0.00 53 1019.0
20260509103036 44 257 0.0 0.0 0.00 0.00 0.00 53 1018.9
20260509102034 44 258 0.0 0.0 0.00 0.00 0.00 53 1019.0
20260509101028 44 267 0.9 0.0 0.00 0.00 0.00 53 1018.9
20260509095038 45 186 0.0 0.0 0.00 0.00 0.00 52 1019.0
20260509094029 45 235 0.0 0.0 0.00 0.00 0.00 53 1019.0
20260509093025 45 245 0.0 0.0 0.00 0.00 0.00 54 1019.1
20260509092039 45 294 0.0 0.0 0.00 0.00 0.00 55 1019.0
20260509090034 44 250 0.0 0.0 0.00 0.00 0.00 56 1018.3
20260509085027 44 195 0.0 0.0 0.00 0.00 0.00 57 1018.4
20260509084022 43 263 0.0 0.0 0.00 0.00 0.00 57 1018.4
20260509083019 44 263 0.0 0.0 0.00 0.00 0.00 55 1018.6
20260509082035 44 263 0.0 0.0 0.00 0.00 0.00 54 1018.7
20260509081030 45 263 0.0 0.0 0.00 0.00 0.00 53 1018.8
20260509080028 46 263 0.0 0.0 0.00 0.00 0.00 51 1018.9
20260509075020 46 263 0.0 0.0 0.00 0.00 0.00 51 1019.0
20260509074036 46 234 0.0 0.0 0.00 0.00 0.00 50 1019.1
20260509073034 47 234 0.0 0.0 0.00 0.00 0.00 50 1019.1
20260509072029 47 232 0.9 0.0 0.00 0.00 0.00 49 1019.2
20260509071022 47 221 0.0 0.0 0.00 0.00 0.00 48 1019.3
20260509070035 47 259 0.0 0.0 0.00 0.00 0.00 48 1019.4
20260509065033 48 259 0.0 0.0 0.00 0.00 0.00 48 1019.4
20260509064030 48 259 0.9 0.0 0.00 0.00 0.00 48 1019.5
20260509063022 48 290 0.0 0.0 0.00 0.00 0.00 48 1019.5
20260509061033 49 191 0.0 0.0 0.00 0.00 0.00 47 1019.3
20260509060025 49 246 0.0 0.0 0.00 0.00 0.00 46 1019.3
20260509055023 49 246 0.9 0.0 0.00 0.00 0.00 46 1019.2
20260509052027 47 275 0.0 0.0 0.00 0.00 0.00 48 1018.8
20260509050036 49 275 0.0 0.0 0.00 0.00 0.00 44 1019.0
20260509045033 50 275 0.0 0.0 0.00 0.00 0.00 44 1019.1
20260509044023 50 275 0.0 0.0 0.00 0.00 0.00 44 1019.2
20260509043036 49 275 0.0 0.0 0.00 0.00 0.00 44 1019.3
20260509042029 49 275 0.0 0.0 0.00 0.00 0.00 45 1019.4
20260509041041 49 275 0.0 0.0 0.00 0.00 0.00 44 1019.4
20260509040037 49 275 0.9 0.0 0.00 0.00 0.00 44 1019.3
20260509035030 50 275 0.0 0.0 0.00 0.00 0.00 44 1019.3
20260509034022 50 275 0.0 0.0 0.00 0.00 0.00 43 1019.2
20260509033038 50 275 0.0 0.0 0.00 0.00 0.00 43 1019.1
20260509032030 51 275 0.0 0.0 0.00 0.00 0.00 43 1019.1
20260509031029 51 275 0.0 0.0 0.00 0.00 0.00 42 1018.8
20260509030023 51 275 0.0 0.0 0.00 0.00 0.00 43 1018.7
20260509025040 51 275 0.0 0.0 0.00 0.00 0.00 42 1018.7
20260509024032 52 275 0.0 0.0 0.00 0.00 0.00 42 1018.7
20260509023032 52 275 0.0 0.0 0.00 0.00 0.00 42 1018.6
20260509022031 52 275 0.0 0.0 0.00 0.00 0.00 43 1018.6